Regional Weather Roundup
Issued by NWS

Home | Current Version | Previous Version | Graphics & Text | Print | Product List | Glossary On
Versions: 1 2 3 4 5 6 7 8 9 10 11 12 13 14 15 16 17 18 19 20 21 22 23 24 25 26 27 28 29 30 31 32 33 34 35 36 37 38 39 40 41 42 43 44 45 46 47 48 49 50
000
ASUS45 KCYS 271910
RWRWY

WYOMING REGIONAL WEATHER ROUNDUP
NATIONAL WEATHER SERVICE CHEYENNE WY
1200 PM MST SAT DEC 27 2014

NOTE:  "FAIR" INDICATES FEW OR NO CLOUDS BELOW 12,000 FEET
WITH NO SIGNIFICANT WEATHER AND/OR OBSTRUCTIONS TO VISIBILITY.

WYZ001-272000-
YELLOWSTONE NATIONAL PARK

CITY           SKY/WX    TMP DP  RH WIND       PRES   REMARKS
LK YELLOWSTONE   N/A     10   5  80 VRB6      30.09F WCI   0
W YELLOWSTONE  NOT AVBL

$$
WYZ002>013-054>058-071-098>099-272000-
NORTHERN WYOMING

CITY           SKY/WX    TMP DP  RH WIND       PRES   REMARKS
JACKSON        CLOUDY     7   7 100 N7        30.16F HAZE    WCI  -5
CODY           PTSUNNY   27   7  43 W10       30.01F WCI  17
GREYBULL       FAIR       4   3  96 S3        30.12F
WORLAND        FAIR       3   1  91 NW3       30.10F
SHERIDAN       FAIR      15   8  73 CALM      30.03F
BUFFALO        FAIR      24   7  48 CALM      29.99F
GILLETTE       FAIR      21  11  65 SW8       30.01F WCI  11
HULETT           N/A    N/A N/A N/A MISG        N/A
NEWCASTLE      FAIR      25  14  63 S7        30.06F WCI  17

$$
WYZ014>020-022>026-101>103-272000-
CENTRAL WYOMING

CITY           SKY/WX    TMP DP  RH WIND       PRES   REMARKS
BIG PINEY      FAIR      -1  -6  79 W3        30.13F
PINEDALE       FAIR       7   3  85 NW8       30.13F WCI  -6
DUBOIS         NOT AVBL
LANDER         CLOUDY    14   4  64 N6        30.04F WCI   5
RIVERTON       FAIR      13   2  61 NW9       30.06F WCI   1
CASPER         FAIR      17   7  64 SW22G28   30.05F WCI   0
DOUGLAS        FAIR      13   6  74 S3        30.04F

$$
WYZ021-027>030-104>119-272000-
SOUTHERN WYOMING

CITY           SKY/WX    TMP DP  RH WIND       PRES   REMARKS
EVANSTON       FAIR      14   9  80 SW13      30.18F WCI   0
FORT BRIDGER   FAIR      20  11  69 W15G24    30.20F WCI   6
ROCK SPRINGS   FAIR      13   5  70 SW23      30.14F WCI  -6
DIXON          SNOW      17   8  68 SW9G18    30.24F VSB 1/4 WCI   5
RAWLINS        FAIR      13   5  70 SW21G29   30.09F WCI  -5
SARATOGA       FAIR      14   3  62 CALM      30.13F
LARAMIE        FAIR      13   4  67 SW18      29.99F WCI  -4
CHEYENNE       FAIR      19   4  51 SW12      30.04F WCI   7
TORRINGTON     FAIR      13   7  77 CALM      30.10F
PINE BLUFFS    FAIR      23   9  54 W15       30.09F WCI  10

$$



USA.gov is the U.S. government's official web portal to all federal, state and local government web resources and services.